Probability
0 0 0 0 0 0 0 0 0 0 0 0 0 0 0 0 0 0 0 0 0 0 0 0 0 0 0 0 0 0 0 0 0 0 0 0 0 0 0 0 0 0 0 0
0 0 0 0 0 0 0 0 0 0 0 0 0 0 0 0 0 0 0 0 0 0 0 0 0 0 0 0 0 0 0 0 0 0 0 0 0 0 0 0 0 0 0 0
0 0 0 0 0 0 0 0 0 0 0 0 0 0 0 0 0 0 0 0 0 0 0 0 0 0 0 0 0 0 0 0 0 0 0 0 0 0 0 0 0 0 0 0
0 0 0 0 0 0 0 0 0 0 0 0 0 0 0 0 0 0 0 0 0 0 0 0 0 0 0 0 0 0 0 0 0 0 0 0 0 0 0 0 0 0 0 0
0 0 0 0 0 0 0 0 0 0 0 0 0 0 0 0 0 0 0 0 0 0 0 0 0 0 0 0 0 0 0 0 0 0 0 0 0 0 0 0 0 0 0 0
0 0 0 0 0 0 0 0 0 0 0 0 0 0 0 0 0 0 0 0 0 0 0 0 0 0 0 0 0 0 0 0 0 0 0 0 0 0 0 0 0 0 0 0
0 0 0 0 0 0 0 0 0 0 0 0 0 0 0 0 0 0 0 0 0 0 0 0 0 0 0 0 0 0 0 0 0 0 0 0 0 0 0 0 0 0 0 0
0 0 0 0 0 0 0 0 0 0 0 0 0 0 0 0 0 0 0 0 0 0 0 0 0 0 0 0 0 0 0 0 0 0 0 0 0 0 0 0 0 0 0 0
0 0 0 0 0 0 0 0 0 0 0 0 0 0 0 0 0 0 0 0 0 0 0 0 0 0 0 0 0 0 0 0 0 0 0 0 0 0 0 0 0 0 0 0
0 0 0 0 0 0 0 0 0 0 0 0 0 0 0 0 0 0 0 0 0 0 0 0 0 0 0 0 0 0 0 0 0 0 0 0 0 0 0 0 0 0 0 0
0 0 0 0 0 0 0 0 0 0 0 0 0 0 0 0 0 0 0 0 0 0 0 0 0 0 0 0 0 0 0 0 0 0 0 0 0 0 0 0 0 0 0 0
0 0 0 0 0 0 0 0 0 0 0 0 0 0 0 0 0 0 0 0 0 0 0 0 0 0 0 0 0 0 0 0 0 0 0 0 0 0 0 0 0 0 0 0
0 0 0 0 0 0 0 0 0 0 0 0 0 0 0 0 0 0 0 0 0 0 0 0 0 0 0 0 0 0 0 0 0 0 0 0 0 0 0 0 0 0 0 0
0 0 0 0 0 0 0 0 0 0 0 0 0 0 0 0 0 0 0 0 0 0 0 0 0 0 0 0 0 0 0 0 0 0 0 0 0 0 0 0 0 0 0 0
0 0 0 0 0 0 0 0 0 0 0 0 0 0 0 0 0 0 0 0 0 0 0 0 0 0 0 0 0 0 0 0 0 0 0 0 0 0 0 0 0 0 0 0
0 0 0 0 0 0 0 0 0 0 0 0 0 0 0 0 0 0 0 0 0 0 0 0 0 0 0 0 0 0 0 0 0 0 0 0 0 0 0 0 0 0 0 0
0 0 0 0 0 0 0 0 0 0 0 0 0 0 0 0 0 0 0 0 0 0 0 0 0 0 0 0 0 0 0 0 0 0 0 0 0 0 0 0 0 0 0 0
0 0 0 0 0 0 0 0 0 0 0 0 0 0 0 0 0 0 0 0 0 0 0 0 0 0 0 0 0 0 0 0 0 0 0 0 0 0 0 0 0 0 0 0
0 0 0 0 0 0 0 0 0 0 0 0 0 0 0 0 0 0 0 0 0 0 0 0 0 0 0 0 0 0 0 0 0 0 0 0 0 0 0 0 0 0 0 0
0 0 0 0 0 0 0 0 0 0 0 0 0 0 0 0 0 0 0 0 0 0 0 0 0 0 0 0 0 0 0 0 0 0 0 0 0 0 0 0 0 0 0 0
0 0 0 0 0 0 0 0 0 0 0 0 0 0 0 0 0 0 0 0 0 0 0 0 0 0 0 0 0 0 0 0 0 0 0 0 0 0 0 0 0 0 0 0
0 0 0 0 0 0 0 0 0 0 0 0 0 0 0 0 0 0 0 0 0 0 0 0 0 0 0 0 0 0 0 0 0 0 0 0 0 0 0 0 0 0 0 0
0 0 0 0 0 0 0 0 0 0 0 0 0 0 0 0 0 0 0 0 0 0 0 0 0 0 0 0 0 0 0 0 0 0 0 0 0 0 0 0 0 0 0 0
0 0 0 0 0 0 0 0 0 0 0 0 0 0 0 0 0 0 0 0 0 0 0 0 0 0 0 0 0 0 0 0 0 0 0 0 0 0 0 0 0 0 0 0
0 0 0 0 0 0 0 0 0 0 0 0 0 0 0 0 0 0 0 0 0 0 0 0 0 0 0 0 0 0 0 0 0 0 0 0 0 0 0 0 0 0 0 0
0 0 0 0 0 0 0 0 0 0 0 0 0 0 0 0 0 0 0 0 0 0 0 0 0 0 0 0 0 0 0 0 0 0 0 0 0 0 0 0 0 0 0 0
Wind_Speed
4 5 6 10 8 5 7 5 2 2 1 4 6 9 11 10 7 10 11 11 12 14 13 9 11 12 11 11 12 14 15 13 11 7 8 9 10 7 7 8 10 12 12 13
4 3 7 5 4 2 2 2 2 1 1 1 5 10 10 9 9 11 11 12 13 12 9 9 9 9 12 14 14 14 15 14 13 12 9 5 5 4 5 5 7 11 12 13
8 6 5 6 5 6 4 5 4 3 1 2 3 10 7 6 5 7 9 10 10 12 13 10 9 10 11 13 15 14 15 15 13 10 5 3 2 1 4 6 7 8 10 12
5 3 6 6 6 8 5 4 5 4 2 3 1 6 9 6 8 8 9 9 10 9 9 8 7 8 11 13 12 12 12 11 10 10 8 9 9 10 9 5 5 6 7 9
6 5 6 7 7 7 5 2 4 2 3 1 1 4 11 5 6 10 11 9 8 6 5 6 6 7 7 8 7 7 7 8 8 9 11 10 10 9 4 3 5 6 6 8
2 2 4 6 3 6 7 8 8 6 5 3 5 6 10 6 8 8 7 5 4 1 1 1 1 0 1 2 3 5 6 7 7 9 9 11 11 9 7 6 6 6 5 6
2 0 0 3 7 3 6 7 3 2 2 8 4 5 12 10 9 7 7 5 1 1 1 1 2 2 1 2 2 3 5 5 6 7 9 10 10 10 12 10 8 7 6 7
9 6 7 5 8 9 7 10 10 8 7 6 3 9 11 9 7 6 4 1 1 0 1 2 1 1 0 1 2 3 4 5 5 6 7 7 8 7 8 9 8 9 8 8
11 8 2 5 3 12 8 5 7 7 3 2 7 8 11 7 4 3 1 2 2 1 1 2 2 2 1 0 2 4 4 4 5 6 6 6 7 8 8 8 8 8 7 6
10 7 1 2 4 1 7 10 6 6 6 6 7 5 6 5 6 4 0 1 2 2 2 2 2 2 1 0 1 2 3 4 5 5 6 5 7 8 8 7 9 9 8 7
6 8 3 4 9 11 7 6 6 6 6 7 5 9 9 9 5 3 1 1 2 2 2 2 2 2 2 1 1 2 3 3 4 6 6 6 7 7 7 8 10 9 7 8
6 7 5 7 5 5 7 9 10 9 7 6 5 10 6 5 3 3 3 3 3 3 2 3 3 3 3 3 2 3 3 5 6 5 6 7 7 6 7 10 10 8 8 8
9 9 6 1 1 3 5 5 6 5 6 7 8 10 4 2 4 4 4 3 3 3 3 3 3 3 4 4 4 4 4 6 6 5 6 7 7 8 9 10 9 7 8 8
6 6 9 14 9 9 7 8 9 8 7 9 13 9 4 2 3 3 3 3 2 3 4 4 4 4 4 4 5 5 5 5 5 5 6 7 9 9 9 8 7 7 7 8
4 5 3 2 4 5 5 8 10 12 12 12 12 10 9 5 2 0 1 2 4 5 6 6 6 6 6 6 6 6 6 5 5 5 6 8 8 7 7 7 7 7 7 8
4 4 3 2 3 3 3 7 9 10 9 9 8 10 5 4 1 2 3 4 5 5 5 6 7 7 8 8 8 8 7 7 6 5 7 7 7 7 7 7 7 6 7 7
5 6 6 4 4 3 11 13 11 8 7 8 13 10 3 1 0 1 3 5 4 4 4 5 5 6 6 7 7 8 9 8 7 7 7 6 6 7 7 6 6 6 6 6
8 7 4 4 6 12 10 5 12 12 10 10 10 6 3 3 3 4 4 4 2 3 4 5 6 6 6 6 6 7 7 7 7 8 8 7 6 7 6 5 6 6 4 5
7 8 5 5 6 7 8 4 8 10 8 6 9 4 0 2 5 3 3 3 1 2 4 4 4 5 6 6 7 7 8 7 7 8 8 7 6 7 6 6 6 4 4 4
5 6 6 5 6 10 9 4 3 6 6 2 3 3 1 3 3 3 2 3 3 3 3 4 5 5 6 6 6 7 8 8 8 8 9 8 7 6 6 6 5 3 3 3
8 7 8 7 6 10 8 4 4 7 8 5 5 4 4 3 3 3 4 3 3 4 4 4 5 5 5 6 6 7 8 8 8 8 8 8 7 6 5 4 3 2 1 1
11 8 8 7 8 12 5 5 7 6 5 6 5 3 2 2 3 4 4 4 5 5 5 5 5 6 5 5 5 8 9 7 7 7 7 7 6 5 3 3 2 1 1 2
9 10 8 10 9 2 3 5 5 7 7 5 4 3 2 2 4 4 4 5 5 5 5 4 5 7 6 5 4 8 8 6 7 7 7 6 5 3 2 2 1 0 1 1
4 3 5 4 4 2 3 5 4 5 5 4 4 3 3 4 6 7 7 7 6 5 5 4 5 7 8 5 5 6 7 6 6 7 7 5 4 3 2 1 0 0 1 1
7 7 6 5 3 2 2 4 5 4 3 2 3 3 4 5 7 7 8 8 7 7 5 4 5 7 8 6 6 6 5 5 7 7 6 4 3 2 1 0 0 0 0 1
6 8 9 7 7 6 5 5 4 4 3 3 3 4 4 4 6 7 8 8 8 8 7 6 6 7 8 7 7 6 5 5 6 6 5 3 2 2 1 1 2 5 5 6
Wind_Direction
105 100 173 193 185 170 159 158 193 241 218 173 231 260 271 279 268 254 248 241 240 241 244 237 223 214 209 206 203 202 200 200 190 187 194 199 208 204 203 205 201 198 197 195
85 210 209 185 176 164 154 151 160 340 6 194 266 272 266 261 246 237 240 242 241 248 258 247 231 213 206 206 205 204 203 197 196 200 198 196 194 200 208 205 206 203 200 197
164 216 176 156 164 177 192 185 186 187 352 348 314 303 297 285 261 262 248 243 242 238 243 245 233 219 210 209 207 205 204 200 198 191 166 146 147 175 201 212 213 210 206 201
193 206 142 155 174 150 197 205 169 156 130 287 15 293 288 288 307 292 275 258 250 249 250 250 241 229 217 216 209 206 201 196 190 179 178 183 198 213 217 210 212 209 209 208
209 181 151 173 188 157 170 110 122 120 143 307 299 241 280 300 277 269 265 263 261 261 258 260 251 235 227 217 205 201 192 191 184 185 192 197 212 221 209 196 209 212 211 214
167 182 172 172 140 142 124 73 56 49 68 266 220 200 272 243 227 249 267 279 284 274 324 305 322 46 216 173 175 176 181 191 185 189 195 202 212 210 208 211 214 215 215 217
139 155 16 124 96 86 112 101 56 341 338 248 244 225 250 247 243 251 275 286 319 87 37 355 20 42 61 117 155 166 179 194 190 194 203 209 213 210 217 217 217 216 218 220
159 211 210 186 157 162 178 151 163 191 222 266 262 235 252 261 273 264 258 253 82 26 313 313 319 2 8 153 159 171 187 201 198 203 212 214 214 215 225 222 219 221 225 223
171 205 201 197 179 145 151 182 157 129 129 272 262 273 296 287 264 253 244 69 38 352 328 324 357 22 9 201 192 195 197 209 212 214 216 219 217 219 227 225 223 229 229 219
148 174 202 178 101 28 152 146 121 144 172 233 269 259 244 253 231 242 304 41 27 24 16 15 14 14 7 332 233 204 208 218 224 220 219 222 224 225 228 227 230 232 230 218
140 141 152 161 187 174 149 164 159 156 167 174 247 261 224 221 221 204 247 52 68 61 31 8 359 360 2 356 278 242 239 241 241 233 230 233 236 231 230 234 238 235 230 219
162 135 172 218 231 196 183 177 154 167 205 195 208 261 259 225 194 146 108 85 67 55 32 12 3 354 342 322 299 276 261 253 249 241 239 242 245 240 238 243 244 235 232 224
153 141 132 29 238 185 203 197 186 151 150 181 202 256 295 121 101 99 102 84 55 41 29 11 360 343 330 321 313 299 280 267 264 251 247 252 251 244 244 247 247 239 235 232
136 147 179 197 195 172 187 198 185 163 191 215 224 226 207 161 97 63 59 59 47 26 15 5 352 340 331 322 316 309 298 288 283 269 257 257 256 252 252 254 252 244 237 236
116 159 170 161 137 146 174 190 191 201 208 212 231 226 220 224 223 87 57 49 37 24 14 2 353 345 342 338 333 325 316 315 308 289 271 265 268 270 267 264 260 255 246 242
111 148 146 201 183 150 220 225 211 218 223 233 257 257 213 197 160 19 13 36 43 28 11 359 354 348 344 341 335 331 326 324 321 303 287 287 288 282 272 268 266 262 255 248
152 147 164 207 158 138 240 221 205 210 207 197 234 244 159 190 138 14 59 66 45 10 357 350 341 333 328 329 330 329 326 326 325 312 305 303 298 289 282 277 270 262 257 250
160 155 169 163 157 220 239 183 193 210 224 215 236 244 170 174 136 106 99 84 40 352 337 329 328 325 323 323 327 325 323 324 321 316 313 312 306 296 293 285 273 268 258 248
157 156 164 176 206 259 286 230 180 189 230 227 235 250 136 175 130 128 90 71 23 329 316 310 312 311 315 321 325 323 318 318 315 311 310 310 304 297 294 285 279 271 258 251
174 160 167 172 187 224 241 231 177 137 225 220 150 134 101 113 160 204 350 353 328 315 307 305 305 305 308 315 322 316 310 311 308 308 306 306 299 289 285 280 277 266 246 243
180 186 198 196 212 247 244 239 118 172 221 159 128 117 101 119 186 247 301 308 302 297 292 296 295 293 295 307 312 303 301 298 301 305 303 303 300 292 287 287 278 255 223 177
176 184 193 181 207 241 207 162 182 184 130 136 131 131 140 207 251 264 271 278 292 295 293 295 293 290 291 296 295 292 291 295 302 301 298 298 300 298 295 288 293 277 157 136
193 187 181 191 212 225 144 151 137 129 136 152 155 178 205 255 269 277 277 282 283 282 285 286 284 288 289 283 276 282 289 300 301 296 292 292 295 297 293 271 252 235 142 136
236 157 152 192 225 168 122 124 126 131 142 161 175 199 226 258 275 285 289 291 293 289 288 285 285 286 288 286 277 271 287 295 289 284 283 283 284 290 302 304 268 179 164 143
197 169 172 199 192 145 204 181 160 159 165 192 224 227 238 254 269 277 286 291 294 294 292 281 275 279 284 290 284 283 289 290 283 276 270 268 265 262 264 312 69 100 14 160
194 175 174 201 189 169 190 192 183 191 216 236 257 267 263 254 269 281 283 286 292 295 297 292 284 280 283 285 283 282 282 278 274 273 263 251 243 239 212 137 90 82 87 84